This is the latest recevied weather packets stored in our database for station/object SV1TQE-1. If no packets are shown the sender has not sent any weather packets the latest 10 day(s).
| Time | Temp. | Humidity | Pressure | Rain* | Wind** | Luminosity | Snow |
|---|---|---|---|---|---|---|---|
| 1787837818 | 38.33° C | 34% | 1019.3 hPa | - | - | - | - |
| 1787836918 | 38.33° C | 33% | 1019.3 hPa | - | - | - | - |
| 1787836018 | 38.33° C | 34% | 1019.4 hPa | - | - | - | - |
| 1787835118 | 38.89° C | 34% | 1019.8 hPa | - | - | - | - |
| 1787834218 | 38.33° C | 33% | 1019.8 hPa | - | - | - | - |
| 1787833318 | 38.89° C | 33% | 1019.9 hPa | - | - | - | - |
| 1787832440 | 38.89° C | 33% | 1020 hPa | - | - | - | - |
| 1787831540 | 38.33° C | 33% | 1020.1 hPa | - | - | - | - |
| 1787830640 | 38.33° C | 33% | 1020.1 hPa | - | - | - | - |
| 1787829740 | 37.78° C | 34% | 1020.3 hPa | - | - | - | - |
| 1787828840 | 37.78° C | 34% | 1020.1 hPa | - | - | - | - |
| 1787827940 | 37.78° C | 34% | 1020.4 hPa | - | - | - | - |
| 1787827040 | 37.78° C | 33% | 1020.5 hPa | - | - | - | - |
| 1787826139 | 38.89° C | 32% | 1020.8 hPa | - | - | - | - |
| 1787825239 | 37.78° C | 32% | 1020.9 hPa | - | - | - | - |
| 1787824339 | 38.33° C | 31% | 1021.1 hPa | - | - | - | - |
| 1787823439 | 38.33° C | 32% | 1021.2 hPa | - | - | - | - |
| 1787822539 | 37.22° C | 32% | 1021.3 hPa | - | - | - | - |
| 1787821639 | 37.22° C | 33% | 1021.3 hPa | - | - | - | - |
| 1787820739 | 36.67° C | 36% | 1021.3 hPa | - | - | - | - |
| 1787818938 | 36.11° C | 35% | 1021.1 hPa | - | - | - | - |
| 1787817138 | 35° C | 36% | 1020.9 hPa | - | - | - | - |
| 1787816238 | 35° C | 37% | 1020.9 hPa | - | - | - | - |
| 1787815338 | 35° C | 37% | 1020.8 hPa | - | - | - | - |
| 1787814438 | 34.44° C | 38% | 1020.7 hPa | - | - | - | - |
* Rain since midnight (hover to see other rain measurements)
** Current wind speed in m/s (hover to see current wind gust speed)